Flag for U.S.A. Weather past 2 weeks in Pasadena, Texas, U.S.A.

Now
84 °F

Passing clouds.


Feels Like: 92 °F
Forecast: 78 / 97 °F
Wind: 5 mph from South

Location: Houston / Ellington

Current Time: Jul 29, 2015 at 12:55:47 AM

Latest Report: Jul 28, 2015 at 10:50 PM


Visibility: 10 mi

Pressure: 29.99 "Hg

Humidity: 74%

Dew point: 75 °F

Location of PasadenaLocation

Historic Weather in Pasadena — Graph

°F

Pasadena temperature yesterday

Maximum temperature yesterday: 95 °F (at 12:50 PM)
Minimum temperature yesterday: 79 °F (at 4:50 AM)
Average temperature yesterday: 88 °F

Past Weeks' High & Low Weather Summary

 TemperatureHumidityPressure
High97 °F (Jul 23, 2:50 PM)94% (Jul 17, 3:50 AM)30.08 "Hg (Jul 17, 3:50 AM)
Low77 °F (Jul 14, 4:50 AM)36% (Jul 15, 12:50 PM)29.86 "Hg (Jul 14, 7:50 PM)
Average86 °F70%29.97 "Hg
* Reported Jul 13 10:50 PM — Jul 28 10:50 PM, Pasadena, Weather by CustomWeather, © 2015

Note: Actual official high and low records may vary slightly from our data, if they occured in-between our weather recording intervals... More about our weather records

Advertising

Pasadena weather history for previous 24 hours

 ConditionsComfort  
Time TempWeatherWind HumidityBarometerVisibility
10:50 PM
Tue, Jul 28
84 °FPassing clouds.5 mph74%29.99 "Hg10 mi
9:50 PM84 °FPassing clouds.7 mph74%29.98 "Hg10 mi
8:50 PM86 °FScattered clouds.9 mph62%29.97 "Hg10 mi
7:50 PM88 °FScattered clouds.13 mph59%29.96 "Hg10 mi
6:50 PM91 °FPassing clouds.14 mph49%29.96 "Hg10 mi
5:50 PM93 °FPassing clouds.12 mph44%29.96 "Hg10 mi
4:50 PM95 °FPassing clouds.13 mph41%29.95 "Hg10 mi
3:50 PM95 °FPassing clouds.8 mph36%29.96 "Hg10 mi
2:50 PM95 °FScattered clouds.8 mph36%29.98 "Hg10 mi
1:50 PM95 °FScattered clouds.5 mph36%30.00 "Hg10 mi
12:50 PM95 °FScattered clouds.6 mph36%30.00 "Hg10 mi
11:50 AM93 °FPassing clouds.12 mph39%30.01 "Hg10 mi
10:50 AM93 °FPassing clouds.3 mph56%30.01 "Hg10 mi
9:50 AM93 °FPassing clouds.6 mph56%30.02 "Hg10 mi
8:50 AM84 °FPassing clouds.5 mph70%30.02 "Hg10 mi
7:50 AM81 °FPassing clouds.No wind84%30.00 "Hg10 mi
5:50 AM79 °FPassing clouds.No wind84%29.96 "Hg10 mi
4:50 AM79 °FPassing clouds.No wind84%29.96 "Hg10 mi
3:50 AM81 °FPassing clouds.5 mph79%29.96 "Hg10 mi
2:50 AM81 °FPassing clouds.No wind79%29.96 "Hg10 mi
1:50 AM81 °FPassing clouds.3 mph79%29.97 "Hg10 mi
12:50 AM82 °FPassing clouds.No wind79%29.98 "Hg10 mi
Weather by CustomWeather, © 2015

See weather overviewHow to use our weather pages